Tracking 30107 objects as of 18-Jan-2025
HD Live streaming from Space Station
objects crossing your sky now

CRRES DEB (CANISTER)

Track CRRES DEB (CANISTER) now!
10-day predictions


NORAD ID: 21948
Int'l Code: 1990-065S
Perigee: 297.6 km
Apogee: 22,399.8 km
Inclination: 17.8 °
Period: 391.2 minutes
Semi major axis: 17719 km
RCS: 0.1262 m2 (medium)
Launch date: July 25, 1990
Source: United States (US)
Launch site: AIR FORCE EASTERN TEST RANGE (AFETR)

Note: This is SATELLITE DEBRIS
Your satellite tracking list
Your tracking list is empty




NASA's NSSDC Master Catalog

Two Line Element Set (TLE):
1 21948U 90065S   25016.31036288  .00004351  00000-0  11745-2 0  9992
2 21948  17.8261  76.0148 6236610 171.1342 209.4809  3.68059063344474
Source of the keplerian elements: AFSPC